[[{"header":{"parameterUnit":"m.s-1","parameterCategory":1,"la1":30.2991,"la2":30.254,"lo1":-89.0895,"lo2":-89.0444,"dy":0.0017,"dx":0.0017,"nx":28,"ny":28,"refTime":"2025-11-28T03:00:00:Z","depth":0,"parameterNumber":2,"parameterNumberName":"U-component_of_WINDS"},"data":[0,0,0,0,0,0,0,0,0,0,0,0,0,0,0,0,0,0,0,0,0,0,0,0,0,0,0,0,0,0,0,0,0,0,0,0,0,0,0,0,0,0,0,0,0,0,0,0,0,0,0,0,0,0,0,0,0,0,-3.0129,-3.0129,0,-3.0138,-3.0138,-3.0138,-3.0078,-3.0076,-3.0075,-3.0073,-3.0082,-3.0083,-3.0085,0,0,0,0,0,0,0,0,0,0,0,0,0,-3.006,-3.0061,-3.0129,-3.0129,-3.0129,-3.0138,-3.0138,-3.0138,-3.0078,-3.0076,-3.0074,-3.0072,-3.0081,-3.0083,-3.0085,0,0,0,0,0,0,0,0,0,0,0,0,0,-3.0081,-3.0062,-3.0129,-3.0101,-3.0098,-3.0138,-3.0138,-3.0138,-3.0079,-3.0076,-3.0074,-3.0071,-3.008,-3.0083,-3.0086,-3.0153,0,0,-3.0094,-3.0095,0,0,0,0,0,0,0,0,-3.008,-3.0084,-3.0105,-3.0103,-3.01,-3.0104,-3.0117,-3.0143,-3.0079,-3.0086,-3.0073,-3.007,-3.0091,-3.0093,-3.01,-3.0154,-3.0154,-3.0094,-3.0096,-3.0097,-3.0098,0,0,0,0,0,0,0,-3.0079,-3.0083,-3.0133,-3.0105,-3.0102,-3.0087,-3.0087,-3.0121,-3.0103,-3.0085,-3.0081,-3.0083,-3.0089,-3.0098,-3.01,-3.0154,-3.0094,-3.0096,-3.0098,-3.0099,-3.0264,-3.0267,0,0,0,0,0,0,-3.0081,-3.0082,-3.0132,-3.0133,-3.0084,-3.009,-3.0091,-3.0105,-3.0102,-3.0099,-3.0085,-3.008,-3.0094,-3.0097,-3.01,-3.0179,-3.0097,-3.0099,-3.0101,-3.0261,-3.0264,-3.0267,0,0,0,0,0,0,-3.008,-3.0086,-3.0132,-3.0106,-3.0111,-3.0094,-3.0111,-3.0107,-3.0115,-3.0102,-3.0098,-3.0097,-3.0092,-3.0096,-3.0141,-3.0179,-3.0101,-3.0103,-3.0258,-3.0262,-3.0266,-3.0339,0,0,0,0,0,0,-3.0078,-3.0086,-3.0112,-3.0108,-3.0113,-3.0173,-3.0114,-3.0109,-3.012,-3.0114,-3.0112,-3.011,-3.0091,-3.0137,-3.0143,-3.0181,-3.0105,-3.0254,-3.026,-3.0265,-3.0333,-3.0345,-3.0355,0,0,0,0,0,-3.0076,-3.0132,-3.0114,-3.012,-3.0145,-3.0175,-3.0178,-3.0156,-3.0123,-3.0149,-3.0141,-3.011,-3.0173,-3.0142,-3.0149,-3.0188,-3.0252,-3.0258,-3.0264,-3.0328,-3.0343,-3.0355,0,0,0,0,0,0,-3.0141,-3.0131,-3.011,-3.0166,-3.0172,-3.0165,-3.0197,-3.0172,-3.0186,-3.018,-3.0151,-3.0151,-3.02,-3.0198,-3.0163,-3.0253,-3.0207,-3.0215,-3.0253,-3.0267,-3.0278,-3.0278,-3.0108,0,0,0,0,0,-3.0162,-3.0188,-3.0177,-3.0228,-3.0232,-3.0214,-3.0226,-3.0208,-3.0213,-3.0215,-3.021,-3.0216,-3.0237,-3.0251,-3.027,-3.0332,-3.0331,-3.0362,-3.0373,-3.0383,-3.039,-3.0423,-3.0437,-3.0288,-3.0288,-3.0288,0,0,-3.0205,-3.0203,-3.0221,-3.0241,-3.0243,-3.0271,-3.0216,-3.0248,-3.0268,-3.022,-3.0262,-3.0258,-3.0262,-3.0316,-3.0339,-3.0316,-3.0431,-3.039,-3.0398,-3.04,-3.0431,-3.0445,-3.0458,-3.0292,-3.0291,-3.0291,0,0,-3.0299,-3.0299,-3.0342,-3.0345,-3.035,-3.0337,-3.0348,-3.0344,-3.034,-3.0382,-3.0347,-3.037,-3.0407,-3.0412,-3.0419,-3.0514,-3.0486,-3.0521,-3.058,-3.0612,-3.0624,-3.0634,-3.0669,-3.0682,-3.0528,-3.0528,-3.0528,0,-3.0352,-3.0393,-3.0367,-3.0401,-3.0411,-3.0368,-3.0411,-3.0416,-3.0426,-3.0434,-3.0407,-3.0453,-3.0453,-3.0508,-3.0531,-3.0538,-3.0549,-3.0522,-3.0624,-3.0634,-3.0644,-3.0677,-3.069,-3.0533,-3.0532,-3.0532,-3.0531,0,-3.0458,-3.0487,-3.0521,-3.0532,-3.0546,-3.0584,-3.0564,-3.0581,-3.0561,-3.0552,-3.0595,-3.0593,-3.0611,-3.0622,-3.0604,-3.0675,-3.066,-3.0629,-3.0582,-3.0663,-3.0693,-3.0705,-3.0539,-3.0537,-3.0536,-3.0535,0,0,-3.0594,-3.0591,-3.0604,-3.0609,-3.061,-3.0632,-3.0668,-3.0686,-3.0701,-3.0709,-3.0739,-3.0771,-3.0743,-3.0752,-3.0733,-3.0761,-3.0838,-3.0727,-3.0727,-3.0749,-3.0917,-3.0941,-3.0956,-3.0819,-3.0821,-3.0823,-3.0917,0,-3.0686,-3.0749,-3.0726,-3.079,-3.0816,-3.0776,-3.0808,-3.0812,-3.0804,-3.0825,-3.0816,-3.084,-3.08,-3.0805,-3.0831,-3.0823,-3.0871,-3.0816,-3.0847,-3.0849,-3.0849,-3.0971,-3.0997,-3.1085,-3.0928,-3.093,-3.0932,0,-3.0802,-3.0816,-3.0883,-3.088,-3.089,-3.0919,-3.0934,-3.0954,-3.0958,-3.095,-3.096,-3.0935,-3.097,-3.0922,-3.0971,-3.0934,-3.0945,-3.0943,-3.0945,-3.0948,-3.0896,-3.0979,-3.1113,-3.1127,-3.095,-3.0949,-3.0947,0,-3.0896,-3.0931,-3.0975,-3.098,-3.0978,-3.1,-3.1,-3.1001,-3.1013,-3.1026,-3.1034,-3.105,-3.1059,-3.1073,-3.1053,-3.102,-3.1104,-3.1055,-3.1099,-3.11,-3.112,-3.1119,-3.1259,-3.1125,-3.1125,-3.1125,-3.1125,0,-3.1002,-3.1045,-3.1017,-3.1045,-3.1091,-3.1065,-3.1112,-3.1107,-3.1109,-3.1135,-3.11,-3.1125,-3.1097,-3.1119,-3.1104,-3.1147,-3.1151,-3.1146,-3.1141,-3.115,-3.1151,-3.1158,-3.1151,-3.1129,-3.1128,-3.1127,-3.1126,0,-3.1115,-3.1098,-3.1145,-3.1139,-3.1138,-3.1173,-3.1168,-3.1193,-3.1182,-3.1215,-3.1221,-3.1205,-3.1229,-3.121,-3.1234,-3.1224,-3.1281,-3.1267,-3.128,-3.1277,-3.1323,-3.1319,-3.1473,-3.1492,-3.1345,-3.1347,-3.1348,0,-3.1185,-3.1217,-3.1214,-3.1229,-3.1232,-3.1256,-3.1269,-3.1244,-3.1258,-3.1265,-3.1289,-3.1311,-3.1327,-3.1368,-3.1358,-3.1376,-3.1363,-3.1416,-3.1366,-3.1373,-3.1365,-3.1364,-3.1368,-3.1426,-3.1428,-3.1429,-3.1431,0,-3.131,-3.13,-3.132,-3.1337,-3.1353,-3.1364,-3.1373,-3.1388,-3.1362,-3.138,-3.1405,-3.1417,-3.1442,-3.1464,-3.1478,-3.1478,-3.1451,-3.1446,-3.1458,-3.1467,-3.1474,-3.1472,-3.1309,-3.1443,-3.1442,-3.1441,-3.144,-3.144,-3.1404,-3.1431,-3.1434,-3.1457,-3.1461,-3.147,-3.1494,-3.1486,-3.1506,-3.1525,-3.1508,-3.1538,-3.1541,-3.1558,-3.1561,-3.1584,-3.1562,-3.1579,-3.1583,-3.1588,-3.1595,-3.1469,-3.1586,-3.1586,-3.1586,-3.1585,-3.1585,0,-3.1529,-3.1529,-3.155,-3.1564,-3.1582,-3.1554,-3.1563,-3.158,-3.1607,-3.1612,-3.1628,-3.1657,-3.1678,-3.167,-3.1688,-3.1708,-3.1696,-3.1714,-3.1713,-3.1714,-3.1613,-3.1602,-3.1724,-3.1724,-3.1724,-3.1724,-3.1724,-3.1724,-3.1596,-3.164,-3.1631,-3.1677,-3.1676,-3.1705,-3.1713,-3.1721,-3.1725,-3.1759,-3.1776,-3.1771,-3.177,-3.1789,-3.1807,-3.1804,-3.1813,-3.1836,-3.1828,-3.1734,-3.1721,-3.1708,-3.1697,-3.1837,-3.1838,-3.1927,-3.1928,-3.1929]},{"header":{"parameterUnit":"m.s-1","parameterCategory":1,"la1":30.2991,"la2":30.254,"lo1":-89.0895,"lo2":-89.0444,"dy":0.0017,"dx":0.0017,"nx":28,"ny":28,"refTime":"2025-11-28T03:00:00:Z","depth":0,"parameterNumber":3,"parameterNumberName":"V-component_of_WINDS"},"data":[0,0,0,0,0,0,0,0,0,0,0,0,0,0,0,0,0,0,0,0,0,0,0,0,0,0,0,0,0,0,0,0,0,0,0,0,0,0,0,0,0,0,0,0,0,0,0,0,0,0,0,0,0,0,0,0,0,0,-4.9271,-4.9272,0,-4.933,-4.933,-4.9331,-4.9302,-4.93,-4.9299,-4.9297,-4.9353,-4.9356,-4.9359,0,0,0,0,0,0,0,0,0,0,0,0,0,-4.9131,-4.9134,-4.9271,-4.9272,-4.9273,-4.9329,-4.933,-4.9331,-4.9302,-4.93,-4.9298,-4.9296,-4.9352,-4.9356,-4.9359,0,0,0,0,0,0,0,0,0,0,0,0,0,-4.9191,-4.9135,-4.9271,-4.9265,-4.9265,-4.9329,-4.933,-4.9331,-4.9302,-4.93,-4.9298,-4.9296,-4.9351,-4.9355,-4.936,-4.9432,0,0,-4.9373,-4.9375,0,0,0,0,0,0,0,0,-4.9188,-4.9196,-4.9265,-4.9266,-4.9266,-4.9306,-4.9301,-4.9365,-4.9303,-4.9288,-4.9297,-4.9295,-4.9339,-4.9344,-4.936,-4.9435,-4.9437,-4.9373,-4.9376,-4.9378,-4.9379,0,0,0,0,0,0,0,-4.9184,-4.9193,-4.9294,-4.9266,-4.9267,-4.9258,-4.9264,-4.9313,-4.9325,-4.9289,-4.9287,-4.9295,-4.9339,-4.9356,-4.9361,-4.9438,-4.9373,-4.9377,-4.938,-4.9382,-4.9575,-4.9577,0,0,0,0,0,0,-4.918,-4.919,-4.9292,-4.9296,-4.922,-4.9263,-4.9269,-4.9295,-4.9325,-4.9327,-4.9297,-4.9293,-4.935,-4.9356,-4.9363,-4.945,-4.9378,-4.9382,-4.9385,-4.9572,-4.9575,-4.9578,0,0,0,0,0,0,-4.9177,-4.919,-4.929,-4.9243,-4.9255,-4.9268,-4.9297,-4.9298,-4.9315,-4.9331,-4.9332,-4.9312,-4.9348,-4.9357,-4.9415,-4.9452,-4.9384,-4.9388,-4.9569,-4.9573,-4.9577,-4.9625,0,0,0,0,0,0,-4.9173,-4.9189,-4.9217,-4.9244,-4.9257,-4.9343,-4.9299,-4.93,-4.9323,-4.9319,-4.9346,-4.9348,-4.9347,-4.9409,-4.942,-4.9457,-4.9391,-4.9566,-4.9571,-4.9576,-4.962,-4.963,-4.9638,0,0,0,0,0,-4.9168,-4.9227,-4.9219,-4.9231,-4.9293,-4.9345,-4.9352,-4.9352,-4.9326,-4.9354,-4.9364,-4.9347,-4.9446,-4.9415,-4.9427,-4.9466,-4.9564,-4.957,-4.9575,-4.9616,-4.9628,-4.9638,0,0,0,0,0,0,-4.9204,-4.9231,-4.9221,-4.9291,-4.9316,-4.934,-4.9375,-4.9364,-4.9396,-4.9391,-4.9387,-4.9393,-4.9454,-4.9465,-4.9431,-4.9537,-4.9501,-4.9509,-4.9528,-4.9539,-4.9548,-4.9544,-4.9395,0,0,0,0,0,-4.922,-4.926,-4.9281,-4.934,-4.9354,-4.9362,-4.9385,-4.9382,-4.9407,-4.9417,-4.9431,-4.9455,-4.9492,-4.9516,-4.955,-4.9621,-4.9627,-4.9654,-4.9663,-4.967,-4.9677,-4.9716,-4.9728,-4.9597,-4.9597,-4.9597,0,0,-4.9253,-4.9273,-4.9298,-4.9348,-4.9367,-4.9408,-4.9371,-4.9416,-4.9447,-4.9423,-4.948,-4.9491,-4.9518,-4.9583,-4.9613,-4.9595,-4.9715,-4.9677,-4.9683,-4.9686,-4.9723,-4.9736,-4.9747,-4.9601,-4.96,-4.9599,0,0,-4.9334,-4.9354,-4.9406,-4.9426,-4.9455,-4.9461,-4.9473,-4.9499,-4.9506,-4.9563,-4.9547,-4.9582,-4.9645,-4.9665,-4.9683,-4.9773,-4.9758,-4.9784,-4.9831,-4.9869,-4.9879,-4.9889,-4.9921,-4.9933,-4.9791,-4.9791,-4.9791,0,-4.9372,-4.9434,-4.9433,-4.948,-4.9502,-4.9484,-4.9536,-4.9555,-4.9594,-4.961,-4.9589,-4.9669,-4.9685,-4.9755,-4.9777,-4.9792,-4.9806,-4.9781,-4.9878,-4.9887,-4.9896,-4.9927,-4.9939,-4.9794,-4.9794,-4.9794,-4.9793,0,-4.9479,-4.9522,-4.956,-4.9601,-4.9627,-4.9676,-4.9681,-4.9708,-4.9702,-4.971,-4.9768,-4.9787,-4.9826,-4.9842,-4.9836,-4.9911,-4.9899,-4.9879,-4.9842,-4.9912,-4.994,-4.9952,-4.9799,-4.9797,-4.9797,-4.9796,0,0,-4.9585,-4.9624,-4.9638,-4.9656,-4.9688,-4.9721,-4.9768,-4.9807,-4.983,-4.9857,-4.9897,-4.9951,-4.9933,-4.9954,-4.995,-4.9983,-5.0054,-4.9959,-4.9959,-4.9976,-5.0137,-5.0153,-5.0167,-5.0044,-5.0046,-5.0048,-5.0135,0,-4.9669,-4.9755,-4.9755,-4.9834,-4.9874,-4.9858,-4.9899,-4.9923,-4.9931,-4.9965,-4.9973,-5.0012,-4.9984,-4.9997,-5.0029,-5.0038,-5.0086,-5.0032,-5.0081,-5.0082,-5.0075,-5.0182,-5.0199,-5.028,-5.0147,-5.0148,-5.015,0,-4.9779,-4.9812,-4.9895,-4.9922,-4.9938,-4.9976,-5.0012,-5.0045,-5.0071,-5.0074,-5.0098,-5.009,-5.0138,-5.0099,-5.0165,-5.0128,-5.0148,-5.0156,-5.0159,-5.0164,-5.0121,-5.019,-5.0306,-5.0319,-5.0168,-5.0166,-5.0165,0,-4.9849,-4.9913,-4.9972,-4.9988,-5.002,-5.0047,-5.0061,-5.0085,-5.0108,-5.0139,-5.0154,-5.0189,-5.0208,-5.0235,-5.0237,-5.0208,-5.0303,-5.0265,-5.0307,-5.0307,-5.0328,-5.0327,-5.045,-5.034,-5.034,-5.0339,-5.0339,0,-4.9944,-4.9995,-5.0004,-5.004,-5.0097,-5.0096,-5.0152,-5.0164,-5.0185,-5.0222,-5.0209,-5.0244,-5.0243,-5.0278,-5.0279,-5.0334,-5.0342,-5.0346,-5.0346,-5.0348,-5.0347,-5.0361,-5.0356,-5.0343,-5.0342,-5.0341,-5.0341,0,-5.0032,-5.0039,-5.0102,-5.0127,-5.0135,-5.0176,-5.0197,-5.0231,-5.0238,-5.0285,-5.0296,-5.0306,-5.0347,-5.0351,-5.0398,-5.0398,-5.0465,-5.0458,-5.0456,-5.0456,-5.0498,-5.0494,-5.0634,-5.0653,-5.053,-5.0531,-5.0532,0,-5.0092,-5.0132,-5.0162,-5.0187,-5.0203,-5.0243,-5.0267,-5.0267,-5.0293,-5.0325,-5.0355,-5.0395,-5.0427,-5.0493,-5.0504,-5.0539,-5.0534,-5.058,-5.0539,-5.054,-5.0535,-5.0533,-5.0537,-5.0589,-5.059,-5.0591,-5.0592,0,-5.0199,-5.0201,-5.0237,-5.0275,-5.0305,-5.0334,-5.0361,-5.0382,-5.0385,-5.0415,-5.0457,-5.0482,-5.053,-5.057,-5.0605,-5.0618,-5.0606,-5.0605,-5.0617,-5.0619,-5.0617,-5.062,-5.0479,-5.0602,-5.0601,-5.06,-5.0599,-5.0599,-5.0275,-5.031,-5.0337,-5.0378,-5.0399,-5.0425,-5.0458,-5.047,-5.0506,-5.0546,-5.0544,-5.059,-5.0615,-5.0661,-5.0677,-5.0713,-5.0697,-5.0714,-5.0719,-5.0723,-5.0728,-5.0611,-5.0719,-5.0719,-5.0719,-5.0718,-5.0718,0,-5.0382,-5.0399,-5.0436,-5.0476,-5.0508,-5.0494,-5.0524,-5.0551,-5.0593,-5.0618,-5.065,-5.0698,-5.0737,-5.0751,-5.0788,-5.0814,-5.0809,-5.0824,-5.0822,-5.0826,-5.0739,-5.0726,-5.0827,-5.0827,-5.0827,-5.0827,-5.0827,-5.0827,-5.0441,-5.0499,-5.0505,-5.0573,-5.0589,-5.0636,-5.0654,-5.0678,-5.0697,-5.0753,-5.0785,-5.0795,-5.0815,-5.0854,-5.0888,-5.0891,-5.0906,-5.0923,-5.0924,-5.0843,-5.0832,-5.0821,-5.0809,-5.0926,-5.0926,-5.1007,-5.1008,-5.1009]}]]